Overview Statistics Trail Chart Weather Telemetry Raw packets
 

This is the latest recevied weather packets stored in our database for station/object DL9RAN-11. If no packets are shown the sender has not sent any weather packets the latest 10 day(s).

<< 12 13 14 15 16 17 18 >>
Time Temp. Humidity Pressure Rain* Wind** Luminosity Snow
1788519098 18.33° C 56% 1020.9 hPa - - - -
1788518797 18.33° C 56% 1020.9 hPa - - - -
1788517558 18.33° C 58% 1021.2 hPa - - - -
1788515780 18.33° C 66% 1021.7 hPa - - - -
1788515480 18.33° C 67% 1022.1 hPa - - - -
1788515179 18.33° C 70% 1022.1 hPa - - - -
1788514879 18.33° C 70% 1022.1 hPa - - - -
1788514579 18.33° C 70% 1022.1 hPa - - - -
1788513406 18.33° C 71% 1022.1 hPa - - - -
1788513105 18.33° C 72% 1022.3 hPa - - - -
1788512735 18.33° C 72% 1022.3 hPa - - - -
1788512433 18.33° C 72% 1022.4 hPa - - - -
1788511595 18.33° C 73% 1022.7 hPa - - - -
1788511295 18.33° C 76% 1022.7 hPa - - - -
1788510994 18.33° C 76% 1022.7 hPa - - - -
1788510694 18.33° C 75% 1022.7 hPa - - - -
1788510394 18.33° C 76% 1022.7 hPa - - - -
1788510094 18.33° C 77% 1022.8 hPa - - - -
1788509793 18.33° C 77% 1022.8 hPa - - - -
1788509354 18.33° C 79% 1022.7 hPa - - - -
1788508848 18.33° C 79% 1022.8 hPa - - - -
1788508548 18.33° C 80% 1022.8 hPa - - - -
1788508111 18.33° C 80% 1022.8 hPa - - - -
1788507134 18.33° C 81% 1022.8 hPa - - - -
1788506365 18.33° C 84% 1022.7 hPa - - - -

* Rain since midnight (hover to see other rain measurements)
** Current wind speed in m/s (hover to see current wind gust speed)